Weather History for Vero Beach, FL

Change the Weather History Date:

Friday, December 13, 2013

  Actual Average Record
Temperature  
Mean Temperature 71 °F 65 °F  
Max Temperature 76 °F 75 °F 86 °F (1953)
Min Temperature 66 °F 56 °F 25 °F (1962)
Degree Days  
Heating Degree Days 0 3  
Month to date heating degree days 1 32  
Since 1 July heating degree days 12 62  
Cooling Degree Days 6 3  
Month to date cooling degree days 72 46  
Year to date cooling degree days 3545 3357  
Growing Degree Days 20 (Base 50)    
Moisture  
Dew Point 57 °F    
Average Humidity 62    
Maximum Humidity 73    
Minimum Humidity 50    
Precipitation  
Precipitation 0.00 in 0.07 in 1.64 in (1997)
Month to date precipitation 1.86 0.93  
Year to date precipitation 44.07 50.61  
Sea Level Pressure  
Sea Level Pressure 30.19 in    
Wind  
Wind Speed 11 mph (East)    
Max Wind Speed 17 mph    
Max Gust Speed 24 mph    
Visibility 10 miles    
Events      
T = Trace of Precipitation, MM = Missing Value Source: NWS Daily Summary

Daily Weather History Graph

Daily Weather History Graph

Search for Another Location

Airport:

Trip Planner

Search our weather history database for the weather conditions in past years. The results will help you decide how hot, cold, wet, or windy it might be!

Date:

Astronomy

Dec. 13, 2013 Rise Set
Actual Time 7:03 AM EST 5:28 PM EST
Civil Twilight 6:37 AM EST 5:54 PM EST
Nautical Twilight 6:08 AM EST 6:23 PM EST
Astronomical Twilight 5:40 AM EST 6:51 PM EST
Moon 2:59 PM EST (12/13) 3:37 AM EST (12/13)
Length of Visible Light 11h 16m
Length of Day
10h 24m
Waxing Gibbous, 88% of the Moon is Illuminated
Dec 13
Waxing Gibbous
Dec 17
Full
Dec 25
Last Quarter
Jan 1
New
Jan 7
First Quarter

Hourly Weather History & Observations

Time (EST) Temp. Dew Point Humidity Pressure Visibility Wind Dir Wind Speed Gust Speed Precip Events Conditions
12:53 AM 68.0 °F 53.1 °F 59% 30.23 in 10.0 mi ENE 12.7 mph - N/A   Mostly Cloudy
1:53 AM 66.9 °F 54.0 °F 63% 30.21 in 10.0 mi NE 11.5 mph - N/A   Scattered Clouds
2:53 AM 68.0 °F 54.0 °F 61% 30.20 in 10.0 mi NE 9.2 mph - N/A   Mostly Cloudy
3:53 AM 66.9 °F 54.0 °F 63% 30.19 in 10.0 mi ENE 12.7 mph - N/A   Mostly Cloudy
4:53 AM 66.9 °F 54.0 °F 63% 30.18 in 10.0 mi ENE 10.4 mph - N/A   Partly Cloudy
5:53 AM 66.9 °F 54.0 °F 63% 30.18 in 10.0 mi ENE 10.4 mph - N/A   Scattered Clouds
6:53 AM 66.9 °F 54.0 °F 63% 30.20 in 10.0 mi East 8.1 mph - N/A   Scattered Clouds
7:53 AM 68.0 °F 55.0 °F 63% 30.22 in 10.0 mi ENE 8.1 mph - N/A   Clear
8:53 AM 71.1 °F 55.0 °F 57% 30.23 in 10.0 mi East 9.2 mph - N/A   Partly Cloudy
9:53 AM 71.1 °F 57.0 °F 61% 30.25 in 10.0 mi ENE 9.2 mph - N/A   Mostly Cloudy
10:53 AM 75.9 °F 57.0 °F 52% 30.25 in 10.0 mi East 13.8 mph 20.7 mph N/A   Overcast
11:53 AM 75.0 °F 55.0 °F 50% 30.23 in 10.0 mi ENE 10.4 mph - N/A   Clear
12:53 PM 75.0 °F 57.9 °F 55% 30.20 in 10.0 mi ENE 12.7 mph - N/A   Scattered Clouds
1:53 PM 73.9 °F 55.9 °F 53% 30.18 in 10.0 mi East 11.5 mph - N/A   Mostly Cloudy
2:53 PM 73.9 °F 55.9 °F 53% 30.17 in 10.0 mi East 11.5 mph - N/A   Mostly Cloudy
3:53 PM 73.0 °F 57.9 °F 59% 30.17 in 10.0 mi East 11.5 mph - N/A   Mostly Cloudy
4:53 PM 71.1 °F 59.0 °F 66% 30.16 in 10.0 mi East 11.5 mph - N/A   Mostly Cloudy
5:53 PM 70.0 °F 57.9 °F 65% 30.16 in 10.0 mi East 11.5 mph 19.6 mph N/A   Mostly Cloudy
6:53 PM 69.1 °F 59.0 °F 70% 30.17 in 10.0 mi East 10.4 mph - N/A   Clear
7:53 PM 70.0 °F 59.0 °F 68% 30.15 in 10.0 mi East 13.8 mph 20.7 mph N/A   Partly Cloudy
8:53 PM 70.0 °F 60.1 °F 71% 30.17 in 10.0 mi East 13.8 mph 19.6 mph N/A   Scattered Clouds
9:53 PM 70.0 °F 60.1 °F 71% 30.17 in 10.0 mi East 12.7 mph - N/A   Partly Cloudy
10:53 PM 72.0 °F 62.1 °F 71% 30.16 in 10.0 mi East 12.7 mph 20.7 mph N/A   Overcast
11:53 PM 71.1 °F 63.0 °F 75% 30.14 in 10.0 mi ESE 11.5 mph - N/A   Mostly Cloudy